Year,Month,Day,Hour,Minute,Value (Times are PST for temperature in C)
2014,06,30,00,00,13.40
2014,06,30,00,01,13.40
2014,06,30,00,02,13.40
2014,06,30,00,03,13.30
2014,06,30,00,04,13.30
2014,06,30,00,05,13.30
2014,06,30,00,06,13.30
2014,06,30,00,07,13.30
2014,06,30,00,08,13.30
2014,06,30,00,09,13.30
2014,06,30,00,10,13.30
2014,06,30,00,11,13.30
2014,06,30,00,12,13.30
2014,06,30,00,13,13.30
2014,06,30,00,14,13.30
2014,06,30,00,15,13.30
2014,06,30,00,16,13.30
2014,06,30,00,17,13.30
2014,06,30,00,18,13.30
2014,06,30,00,19,13.30
2014,06,30,00,20,13.30
2014,06,30,00,21,13.30
2014,06,30,00,22,13.30
2014,06,30,00,23,13.40
2014,06,30,00,24,13.40
2014,06,30,00,25,13.40
2014,06,30,00,26,13.40
2014,06,30,00,27,13.40
2014,06,30,00,28,13.50
2014,06,30,00,29,13.50
2014,06,30,00,30,13.50
2014,06,30,00,31,13.60
2014,06,30,00,32,13.60
2014,06,30,00,33,13.60
2014,06,30,00,34,13.60
2014,06,30,00,35,13.70
2014,06,30,00,36,13.70
2014,06,30,00,37,13.70
2014,06,30,00,38,13.70
2014,06,30,00,39,13.70
2014,06,30,00,40,13.80
2014,06,30,00,41,13.80
2014,06,30,00,42,13.80
2014,06,30,00,43,13.90
2014,06,30,00,44,13.90
2014,06,30,00,45,13.90
2014,06,30,00,46,13.90
2014,06,30,00,47,14.00
2014,06,30,00,48,14.00
2014,06,30,00,49,14.10
2014,06,30,00,50,14.10
2014,06,30,00,51,14.20
2014,06,30,00,52,14.20
2014,06,30,00,53,14.30
2014,06,30,00,54,14.30
2014,06,30,00,55,14.40
2014,06,30,00,56,14.40
2014,06,30,00,57,14.50
2014,06,30,00,58,14.50
2014,06,30,00,59,14.50
2014,06,30,01,00,14.50
2014,06,30,01,01,14.50
2014,06,30,01,02,14.60
2014,06,30,01,03,14.60
2014,06,30,01,04,14.60
2014,06,30,01,05,14.60
2014,06,30,01,06,14.60
2014,06,30,01,07,14.60
2014,06,30,01,08,14.60
2014,06,30,01,09,14.60
2014,06,30,01,10,14.70
2014,06,30,01,11,14.70
2014,06,30,01,12,14.70
2014,06,30,01,13,14.70
2014,06,30,01,14,14.70
2014,06,30,01,15,14.70
2014,06,30,01,16,14.70
2014,06,30,01,17,14.70
2014,06,30,01,18,14.70
2014,06,30,01,19,14.70
2014,06,30,01,20,14.70
2014,06,30,01,21,14.70
2014,06,30,01,22,14.70
2014,06,30,01,23,14.70
2014,06,30,01,24,14.70
2014,06,30,01,25,14.60
2014,06,30,01,26,14.60
2014,06,30,01,27,14.60
2014,06,30,01,28,14.60
2014,06,30,01,29,14.60
2014,06,30,01,30,14.60
2014,06,30,01,31,14.50
2014,06,30,01,32,14.50
2014,06,30,01,33,14.50
2014,06,30,01,34,14.50
2014,06,30,01,35,14.40
2014,06,30,01,36,14.40
2014,06,30,01,37,14.40
2014,06,30,01,38,14.40
2014,06,30,01,39,14.40
2014,06,30,01,40,14.30
2014,06,30,01,41,14.30
2014,06,30,01,42,14.30
2014,06,30,01,43,14.30
2014,06,30,01,44,14.30
2014,06,30,01,45,14.30
2014,06,30,01,46,14.30
2014,06,30,01,47,14.30
2014,06,30,01,48,14.20
2014,06,30,01,49,14.20
2014,06,30,01,50,14.20
2014,06,30,01,51,14.20
2014,06,30,01,52,14.20
2014,06,30,01,53,14.20
2014,06,30,01,54,14.20
2014,06,30,01,55,14.20
2014,06,30,01,56,14.20
2014,06,30,01,57,14.10
2014,06,30,01,58,14.10
2014,06,30,01,59,14.10
2014,06,30,02,00,14.10
2014,06,30,02,01,14.10
2014,06,30,02,02,14.10
2014,06,30,02,03,14.10
2014,06,30,02,04,14.10
2014,06,30,02,05,14.10
2014,06,30,02,06,14.00
2014,06,30,02,07,14.00
2014,06,30,02,08,14.00
2014,06,30,02,09,14.00
2014,06,30,02,10,13.90
2014,06,30,02,11,13.90
2014,06,30,02,12,13.90
2014,06,30,02,13,13.90
2014,06,30,02,14,13.90
2014,06,30,02,15,13.90
2014,06,30,02,16,13.80
2014,06,30,02,17,13.80
2014,06,30,02,18,13.80
2014,06,30,02,19,13.80
2014,06,30,02,20,13.80
2014,06,30,02,21,13.80
2014,06,30,02,22,13.80
2014,06,30,02,23,13.80
2014,06,30,02,24,13.80
2014,06,30,02,25,13.70
2014,06,30,02,26,13.70
2014,06,30,02,27,13.70
2014,06,30,02,28,13.70
2014,06,30,02,29,13.70
2014,06,30,02,30,13.70
2014,06,30,02,31,13.60
2014,06,30,02,32,13.60
2014,06,30,02,33,13.60
2014,06,30,02,34,13.60
2014,06,30,02,35,13.60
2014,06,30,02,36,13.60
2014,06,30,02,37,13.50
2014,06,30,02,38,13.50
2014,06,30,02,39,13.50
2014,06,30,02,40,13.50
2014,06,30,02,41,13.50
2014,06,30,02,42,13.40
2014,06,30,02,43,13.40
2014,06,30,02,44,13.40
2014,06,30,02,45,13.40
2014,06,30,02,46,13.40
2014,06,30,02,47,13.40
2014,06,30,02,48,13.40
2014,06,30,02,49,13.30
2014,06,30,02,50,13.30
2014,06,30,02,51,13.30
2014,06,30,02,52,13.30
2014,06,30,02,53,13.30
2014,06,30,02,54,13.30
2014,06,30,02,55,13.30
2014,06,30,02,56,13.20
2014,06,30,02,57,13.20
2014,06,30,02,58,13.20
2014,06,30,02,59,13.20
2014,06,30,03,00,13.20
2014,06,30,03,01,13.20
2014,06,30,03,02,13.20
2014,06,30,03,03,13.20
2014,06,30,03,04,13.20
2014,06,30,03,05,13.20
2014,06,30,03,06,13.20
2014,06,30,03,07,13.20
2014,06,30,03,08,13.20
2014,06,30,03,09,13.20
2014,06,30,03,10,13.20
2014,06,30,03,11,13.20
2014,06,30,03,12,13.20
2014,06,30,03,13,13.20
2014,06,30,03,14,13.10
2014,06,30,03,15,13.10
2014,06,30,03,16,13.10
2014,06,30,03,17,13.10
2014,06,30,03,18,13.10
2014,06,30,03,19,13.10
2014,06,30,03,20,13.10
2014,06,30,03,21,13.10
2014,06,30,03,22,13.10
2014,06,30,03,23,13.10
2014,06,30,03,24,13.10
2014,06,30,03,25,13.10
2014,06,30,03,26,13.10
2014,06,30,03,27,13.10
2014,06,30,03,28,13.10
2014,06,30,03,29,13.10
2014,06,30,03,30,13.10
2014,06,30,03,31,13.10
2014,06,30,03,32,13.10
2014,06,30,03,33,13.10
2014,06,30,03,34,13.10
2014,06,30,03,35,13.10
2014,06,30,03,36,13.10
2014,06,30,03,37,13.10
2014,06,30,03,38,13.10
2014,06,30,03,39,13.10
2014,06,30,03,40,13.10
2014,06,30,03,41,13.10
2014,06,30,03,42,13.10
2014,06,30,03,43,13.10
2014,06,30,03,44,13.10
2014,06,30,03,45,13.10
2014,06,30,03,46,13.10
2014,06,30,03,47,13.10
2014,06,30,03,48,13.10
2014,06,30,03,49,13.10
2014,06,30,03,50,13.10
2014,06,30,03,51,13.10
2014,06,30,03,52,13.10
2014,06,30,03,53,13.10
2014,06,30,03,54,13.10
2014,06,30,03,55,13.00
2014,06,30,03,56,13.00
2014,06,30,03,57,13.00
2014,06,30,03,58,13.00
2014,06,30,03,59,13.00
2014,06,30,04,00,13.00
2014,06,30,04,01,13.00
2014,06,30,04,02,13.00
2014,06,30,04,03,13.00
2014,06,30,04,04,13.00
2014,06,30,04,05,13.00
2014,06,30,04,06,13.00
2014,06,30,04,07,13.00
2014,06,30,04,08,13.00
2014,06,30,04,09,13.00
2014,06,30,04,10,13.00
2014,06,30,04,11,12.90
2014,06,30,04,12,12.90
2014,06,30,04,13,12.90
2014,06,30,04,14,12.90
2014,06,30,04,15,12.90
2014,06,30,04,16,12.90
2014,06,30,04,17,12.90
2014,06,30,04,18,12.90
2014,06,30,04,19,12.90
2014,06,30,04,20,12.90
2014,06,30,04,21,12.90
2014,06,30,04,22,12.90
2014,06,30,04,23,12.90
2014,06,30,04,24,12.90
2014,06,30,04,25,12.90
2014,06,30,04,26,12.90
2014,06,30,04,27,12.90
2014,06,30,04,28,12.90
2014,06,30,04,29,12.90
2014,06,30,04,30,12.90
2014,06,30,04,31,12.90
2014,06,30,04,32,12.90
2014,06,30,04,33,12.90
2014,06,30,04,34,12.90
2014,06,30,04,35,12.90
2014,06,30,04,36,12.90
2014,06,30,04,37,12.80
2014,06,30,04,38,12.80
2014,06,30,04,39,12.80
2014,06,30,04,40,12.80
2014,06,30,04,41,12.80
2014,06,30,04,42,12.80
2014,06,30,04,43,12.80
2014,06,30,04,44,12.80
2014,06,30,04,45,12.80
2014,06,30,04,46,12.80
2014,06,30,04,47,12.80
2014,06,30,04,48,12.80
2014,06,30,04,49,12.80
2014,06,30,04,50,12.80
2014,06,30,04,51,12.90
2014,06,30,04,52,12.90
2014,06,30,04,53,12.90
2014,06,30,04,54,12.90
2014,06,30,04,55,12.90
2014,06,30,04,56,12.90
2014,06,30,04,57,12.90
2014,06,30,04,58,13.00
2014,06,30,04,59,13.00
2014,06,30,05,00,13.00
2014,06,30,05,01,13.00
2014,06,30,05,02,13.00
2014,06,30,05,03,13.00
2014,06,30,05,04,13.00
2014,06,30,05,05,13.00
2014,06,30,05,06,13.00
2014,06,30,05,07,13.00
2014,06,30,05,08,13.00
2014,06,30,05,09,13.00
2014,06,30,05,10,13.10
2014,06,30,05,11,13.10
2014,06,30,05,12,13.10
2014,06,30,05,13,13.10
2014,06,30,05,14,13.10
2014,06,30,05,15,13.10
2014,06,30,05,16,13.10
2014,06,30,05,17,13.10
2014,06,30,05,18,13.10
2014,06,30,05,19,13.10
2014,06,30,05,20,13.10
2014,06,30,05,21,13.10
2014,06,30,05,22,13.10
2014,06,30,05,23,13.10
2014,06,30,05,24,13.10
2014,06,30,05,25,13.10
2014,06,30,05,26,13.10
2014,06,30,05,27,13.10
2014,06,30,05,28,13.10
2014,06,30,05,29,13.10
2014,06,30,05,30,13.10
2014,06,30,05,31,13.10
2014,06,30,05,32,13.20
2014,06,30,05,33,13.20
2014,06,30,05,34,13.20
2014,06,30,05,35,13.20
2014,06,30,05,36,13.20
2014,06,30,05,37,13.20
2014,06,30,05,38,13.20
2014,06,30,05,39,13.20
2014,06,30,05,40,13.20
2014,06,30,05,41,13.20
2014,06,30,05,42,13.20
2014,06,30,05,43,13.20
2014,06,30,05,44,13.20
2014,06,30,05,45,13.20
2014,06,30,05,46,13.20
2014,06,30,05,47,13.20
2014,06,30,05,48,13.20
2014,06,30,05,49,13.20
2014,06,30,05,50,13.20
2014,06,30,05,51,13.20
2014,06,30,05,52,13.20
2014,06,30,05,53,13.30
2014,06,30,05,54,13.30
2014,06,30,05,55,13.30
2014,06,30,05,56,13.30
2014,06,30,05,57,13.30
2014,06,30,05,58,13.30
2014,06,30,05,59,13.30
2014,06,30,06,00,13.30
2014,06,30,06,01,13.30
2014,06,30,06,02,13.30
2014,06,30,06,03,13.30
2014,06,30,06,04,13.30
2014,06,30,06,05,13.30
2014,06,30,06,06,13.30
2014,06,30,06,07,13.40
2014,06,30,06,08,13.40
2014,06,30,06,09,13.40
2014,06,30,06,10,13.40
2014,06,30,06,11,13.40
2014,06,30,06,12,13.40
2014,06,30,06,13,13.50
2014,06,30,06,14,13.50
2014,06,30,06,15,13.50
2014,06,30,06,16,13.50
2014,06,30,06,17,13.50
2014,06,30,06,18,13.60
2014,06,30,06,19,13.60
2014,06,30,06,20,13.70
2014,06,30,06,21,13.70
2014,06,30,06,22,13.70
2014,06,30,06,23,13.70
2014,06,30,06,24,13.80
2014,06,30,06,25,13.80
2014,06,30,06,26,13.80
2014,06,30,06,27,13.90
2014,06,30,06,28,13.90
2014,06,30,06,29,13.90
2014,06,30,06,30,13.90
2014,06,30,06,31,13.90
2014,06,30,06,32,13.90
2014,06,30,06,33,13.90
2014,06,30,06,34,14.00
2014,06,30,06,35,14.00
2014,06,30,06,36,14.00
2014,06,30,06,37,14.00
2014,06,30,06,38,14.10
2014,06,30,06,39,14.10
2014,06,30,06,40,14.20
2014,06,30,06,41,14.20
2014,06,30,06,42,14.20
2014,06,30,06,43,14.20
2014,06,30,06,44,14.30
2014,06,30,06,45,14.30
2014,06,30,06,46,14.30
2014,06,30,06,47,14.30
2014,06,30,06,48,14.40
2014,06,30,06,49,14.40
2014,06,30,06,50,14.40
2014,06,30,06,51,14.40
2014,06,30,06,52,14.40
2014,06,30,06,53,14.50
2014,06,30,06,54,14.50
2014,06,30,06,55,14.50
2014,06,30,06,56,14.60
2014,06,30,06,57,14.60
2014,06,30,06,58,14.60
2014,06,30,06,59,14.60
2014,06,30,07,00,14.60
2014,06,30,07,01,14.60
2014,06,30,07,02,14.60
2014,06,30,07,03,14.70
2014,06,30,07,04,14.70
2014,06,30,07,05,14.70
2014,06,30,07,06,14.70
2014,06,30,07,07,14.70
2014,06,30,07,08,14.80
2014,06,30,07,09,14.80
2014,06,30,07,10,14.80
2014,06,30,07,11,14.80
2014,06,30,07,12,14.80
2014,06,30,07,13,14.70
2014,06,30,07,14,14.80
2014,06,30,07,15,14.70
2014,06,30,07,16,14.70
2014,06,30,07,17,14.70
2014,06,30,07,18,14.80
2014,06,30,07,19,14.80
2014,06,30,07,20,14.80
2014,06,30,07,21,14.80
2014,06,30,07,22,14.80
2014,06,30,07,23,14.80
2014,06,30,07,24,14.80
2014,06,30,07,25,14.80
2014,06,30,07,26,14.80
2014,06,30,07,27,14.80
2014,06,30,07,28,14.80
2014,06,30,07,29,14.90
2014,06,30,07,30,14.90
2014,06,30,07,31,14.90
2014,06,30,07,32,15.00
2014,06,30,07,33,15.00
2014,06,30,07,34,15.00
2014,06,30,07,35,15.00
2014,06,30,07,36,15.10
2014,06,30,07,37,15.10
2014,06,30,07,38,15.10
2014,06,30,07,39,15.20
2014,06,30,07,40,15.20
2014,06,30,07,41,15.30
2014,06,30,07,42,15.30
2014,06,30,07,43,15.30
2014,06,30,07,44,15.30
2014,06,30,07,45,15.40
2014,06,30,07,46,15.40
2014,06,30,07,47,15.40
2014,06,30,07,48,15.40
2014,06,30,07,49,15.40
2014,06,30,07,50,15.40
2014,06,30,07,51,15.40
2014,06,30,07,52,15.40
2014,06,30,07,53,15.50
2014,06,30,07,54,15.50
2014,06,30,07,55,15.50
2014,06,30,07,56,15.60
2014,06,30,07,57,15.60
2014,06,30,07,58,15.60
2014,06,30,07,59,15.60
2014,06,30,08,00,15.70
2014,06,30,08,01,15.70
2014,06,30,08,02,15.80
2014,06,30,08,03,15.80
2014,06,30,08,04,15.80
2014,06,30,08,05,15.90
2014,06,30,08,06,15.90
2014,06,30,08,07,15.90
2014,06,30,08,08,15.90
2014,06,30,08,09,15.90
2014,06,30,08,10,15.90
2014,06,30,08,11,15.90
2014,06,30,08,12,16.00
2014,06,30,08,13,16.00
2014,06,30,08,14,16.00
2014,06,30,08,15,16.00
2014,06,30,08,16,16.00
2014,06,30,08,17,16.00
2014,06,30,08,18,16.00
2014,06,30,08,19,16.10
2014,06,30,08,20,16.10
2014,06,30,08,21,16.10
2014,06,30,08,22,16.20
2014,06,30,08,23,16.20
2014,06,30,08,24,16.30
2014,06,30,08,25,16.30
2014,06,30,08,26,16.30
2014,06,30,08,27,16.30
2014,06,30,08,28,16.30
2014,06,30,08,29,16.30
2014,06,30,08,30,16.40
2014,06,30,08,31,16.40
2014,06,30,08,32,16.40
2014,06,30,08,33,16.40
2014,06,30,08,34,16.50
2014,06,30,08,35,16.50
2014,06,30,08,36,16.60
2014,06,30,08,37,16.70
2014,06,30,08,38,16.70
2014,06,30,08,39,16.80
2014,06,30,08,40,16.90
2014,06,30,08,41,16.90
2014,06,30,08,42,16.90
2014,06,30,08,43,17.00
2014,06,30,08,44,17.00
2014,06,30,08,45,17.10
2014,06,30,08,46,17.10
2014,06,30,08,47,17.10
2014,06,30,08,48,17.10
2014,06,30,08,49,17.10
2014,06,30,08,50,17.10
2014,06,30,08,51,17.10
2014,06,30,08,52,17.10
2014,06,30,08,53,17.00
2014,06,30,08,54,17.00
2014,06,30,08,55,17.00
2014,06,30,08,56,17.00
2014,06,30,08,57,17.00
2014,06,30,08,58,17.00
2014,06,30,08,59,17.00
2014,06,30,09,00,17.10
2014,06,30,09,01,17.10
2014,06,30,09,02,17.20
2014,06,30,09,03,17.20
2014,06,30,09,04,17.20
2014,06,30,09,05,17.20
2014,06,30,09,06,17.30
2014,06,30,09,07,17.30
2014,06,30,09,08,17.30
2014,06,30,09,09,17.30
2014,06,30,09,10,17.30
2014,06,30,09,11,17.20
2014,06,30,09,12,17.20
2014,06,30,09,13,17.20
2014,06,30,09,14,17.30
2014,06,30,09,15,17.30
2014,06,30,09,16,17.30
2014,06,30,09,17,17.30
2014,06,30,09,18,17.30
2014,06,30,09,19,17.30
2014,06,30,09,20,17.20
2014,06,30,09,21,17.20
2014,06,30,09,22,17.20
2014,06,30,09,23,17.20
2014,06,30,09,24,17.10
2014,06,30,09,25,17.10
2014,06,30,09,26,17.00
2014,06,30,09,27,17.00
2014,06,30,09,28,16.90
2014,06,30,09,29,16.90
2014,06,30,09,30,16.90
2014,06,30,09,31,16.90
2014,06,30,09,32,16.90
2014,06,30,09,33,16.90
2014,06,30,09,34,16.90
2014,06,30,09,35,16.90
2014,06,30,09,36,17.00
2014,06,30,09,37,17.00
2014,06,30,09,38,17.10
2014,06,30,09,39,17.10
2014,06,30,09,40,17.20
2014,06,30,09,41,17.20
2014,06,30,09,42,17.20
2014,06,30,09,43,17.30
2014,06,30,09,44,17.30
2014,06,30,09,45,17.30
2014,06,30,09,46,17.20
2014,06,30,09,47,17.20
2014,06,30,09,48,17.20
2014,06,30,09,49,17.20
2014,06,30,09,50,17.30
2014,06,30,09,51,17.30
2014,06,30,09,52,17.40
2014,06,30,09,53,17.40
2014,06,30,09,54,17.40
2014,06,30,09,55,17.50
2014,06,30,09,56,17.50
2014,06,30,09,57,17.60
2014,06,30,09,58,17.60
2014,06,30,09,59,17.60
2014,06,30,10,00,17.60
2014,06,30,10,01,17.60
2014,06,30,10,02,17.60
2014,06,30,10,03,17.60
2014,06,30,10,04,17.60
2014,06,30,10,05,17.60
2014,06,30,10,06,17.70
2014,06,30,10,07,17.70
2014,06,30,10,08,17.80
2014,06,30,10,09,17.90
2014,06,30,10,10,17.90
2014,06,30,10,11,18.00
2014,06,30,10,12,18.00
2014,06,30,10,13,18.10
2014,06,30,10,14,18.20
2014,06,30,10,15,18.20
2014,06,30,10,16,18.20
2014,06,30,10,17,18.30
2014,06,30,10,18,18.30
2014,06,30,10,19,18.30
2014,06,30,10,20,18.30
2014,06,30,10,21,18.30
2014,06,30,10,22,18.30
2014,06,30,10,23,18.30
2014,06,30,10,24,18.30
2014,06,30,10,25,18.30
2014,06,30,10,26,18.30
2014,06,30,10,27,18.20
2014,06,30,10,28,18.20
2014,06,30,10,29,18.20
2014,06,30,10,30,18.20
2014,06,30,10,31,18.20
2014,06,30,10,32,18.20
2014,06,30,10,33,18.20
2014,06,30,10,34,18.20
2014,06,30,10,35,18.30
2014,06,30,10,36,18.30
2014,06,30,10,37,18.30
2014,06,30,10,38,18.30
2014,06,30,10,39,18.30
2014,06,30,10,40,18.30
2014,06,30,10,41,18.30
2014,06,30,10,42,18.40
2014,06,30,10,43,18.40
2014,06,30,10,44,18.40
2014,06,30,10,45,18.40
2014,06,30,10,46,18.40
2014,06,30,10,47,18.50
2014,06,30,10,48,18.50
2014,06,30,10,49,18.60
2014,06,30,10,50,18.60
2014,06,30,10,51,18.70
2014,06,30,10,52,18.70
2014,06,30,10,53,18.80
2014,06,30,10,54,18.80
2014,06,30,10,55,18.80
2014,06,30,10,56,18.70
2014,06,30,10,57,18.70
2014,06,30,10,58,18.60
2014,06,30,10,59,18.70
2014,06,30,11,00,18.70
2014,06,30,11,01,18.70
2014,06,30,11,02,18.70
2014,06,30,11,03,18.70
2014,06,30,11,04,18.80
2014,06,30,11,05,18.90
2014,06,30,11,06,18.90
2014,06,30,11,07,19.00
2014,06,30,11,08,19.10
2014,06,30,11,09,19.20
2014,06,30,11,10,19.20
2014,06,30,11,11,19.30
2014,06,30,11,12,19.30
2014,06,30,11,13,19.30
2014,06,30,11,14,19.30
2014,06,30,11,15,19.20
2014,06,30,11,16,19.20
2014,06,30,11,17,19.20
2014,06,30,11,18,19.20
2014,06,30,11,19,19.20
2014,06,30,11,20,19.20
2014,06,30,11,21,19.20
2014,06,30,11,22,19.20
2014,06,30,11,23,19.30
2014,06,30,11,24,19.50
2014,06,30,11,25,19.60
2014,06,30,11,26,19.70
2014,06,30,11,27,19.80
2014,06,30,11,28,19.80
2014,06,30,11,29,19.80
2014,06,30,11,30,19.90
2014,06,30,11,31,19.90
2014,06,30,11,32,20.00
2014,06,30,11,33,20.00
2014,06,30,11,34,20.00
2014,06,30,11,35,20.00
2014,06,30,11,36,20.00
2014,06,30,11,37,20.00
2014,06,30,11,38,20.00
2014,06,30,11,39,19.90
2014,06,30,11,40,19.90
2014,06,30,11,41,19.90
2014,06,30,11,42,20.00
2014,06,30,11,43,20.00
2014,06,30,11,44,20.10
2014,06,30,11,45,20.20
2014,06,30,11,46,20.30
2014,06,30,11,47,20.30
2014,06,30,11,48,20.30
2014,06,30,11,49,20.30
2014,06,30,11,50,20.30
2014,06,30,11,51,20.30
2014,06,30,11,52,20.30
2014,06,30,11,53,20.30
2014,06,30,11,54,20.20
2014,06,30,11,55,20.20
2014,06,30,11,56,20.20
2014,06,30,11,57,20.20
2014,06,30,11,58,20.20
2014,06,30,11,59,20.30
2014,06,30,12,00,20.30
2014,06,30,12,01,20.20
2014,06,30,12,02,20.20
2014,06,30,12,03,20.10
2014,06,30,12,04,20.10
2014,06,30,12,05,20.10
2014,06,30,12,06,20.10
2014,06,30,12,07,20.10
2014,06,30,12,08,20.10
2014,06,30,12,09,20.10
2014,06,30,12,10,20.10
2014,06,30,12,11,20.10
2014,06,30,12,12,20.20
2014,06,30,12,13,20.20
2014,06,30,12,14,20.10
2014,06,30,12,15,20.20
2014,06,30,12,16,20.20
2014,06,30,12,17,20.20
2014,06,30,12,18,20.30
2014,06,30,12,19,20.40
2014,06,30,12,20,20.50
2014,06,30,12,21,20.50
2014,06,30,12,22,20.60
2014,06,30,12,23,20.60
2014,06,30,12,24,20.60
2014,06,30,12,25,20.60
2014,06,30,12,26,20.60
2014,06,30,12,27,20.60
2014,06,30,12,28,20.60
2014,06,30,12,29,20.70
2014,06,30,12,30,20.70
2014,06,30,12,31,20.70
2014,06,30,12,32,20.70
2014,06,30,12,33,20.70
2014,06,30,12,34,20.70
2014,06,30,12,35,20.80
2014,06,30,12,36,20.90
2014,06,30,12,37,21.00
2014,06,30,12,38,21.00
2014,06,30,12,39,21.00
2014,06,30,12,40,21.00
2014,06,30,12,41,21.10
2014,06,30,12,42,21.10
2014,06,30,12,43,21.10
2014,06,30,12,44,21.10
2014,06,30,12,45,21.10
2014,06,30,12,46,21.10
2014,06,30,12,47,21.20
2014,06,30,12,48,21.20
2014,06,30,12,49,21.30
2014,06,30,12,50,21.30
2014,06,30,12,51,21.20
2014,06,30,12,52,21.10
2014,06,30,12,53,21.10
2014,06,30,12,54,21.10
2014,06,30,12,55,21.00
2014,06,30,12,56,21.00
2014,06,30,12,57,20.90
2014,06,30,12,58,20.90
2014,06,30,12,59,20.90
2014,06,30,13,00,20.90
2014,06,30,13,01,20.90
2014,06,30,13,02,20.90
2014,06,30,13,03,20.90
2014,06,30,13,04,20.90
2014,06,30,13,05,21.00
2014,06,30,13,06,21.10
2014,06,30,13,07,21.10
2014,06,30,13,08,21.10
2014,06,30,13,09,21.10
2014,06,30,13,10,21.10
2014,06,30,13,11,21.10
2014,06,30,13,12,21.00
2014,06,30,13,13,21.00
2014,06,30,13,14,20.90
2014,06,30,13,15,20.90
2014,06,30,13,16,20.80
2014,06,30,13,17,20.80
2014,06,30,13,18,20.80
2014,06,30,13,19,20.80
2014,06,30,13,20,20.80
2014,06,30,13,21,20.90
2014,06,30,13,22,21.00
2014,06,30,13,23,21.10
2014,06,30,13,24,21.10
2014,06,30,13,25,21.20
2014,06,30,13,26,21.20
2014,06,30,13,27,21.20
2014,06,30,13,28,21.20
2014,06,30,13,29,21.20
2014,06,30,13,30,21.20
2014,06,30,13,31,21.20
2014,06,30,13,32,21.10
2014,06,30,13,33,21.10
2014,06,30,13,34,21.10
2014,06,30,13,35,21.10
2014,06,30,13,36,21.10
2014,06,30,13,37,21.10
2014,06,30,13,38,21.10
2014,06,30,13,39,21.10
2014,06,30,13,40,21.10
2014,06,30,13,41,21.10
2014,06,30,13,42,21.10
2014,06,30,13,43,21.20
2014,06,30,13,44,21.20
2014,06,30,13,45,21.20
2014,06,30,13,46,21.30
2014,06,30,13,47,21.30
2014,06,30,13,48,21.30
2014,06,30,13,49,21.40
2014,06,30,13,50,21.40
2014,06,30,13,51,21.40
2014,06,30,13,52,21.50
2014,06,30,13,53,21.60
2014,06,30,13,54,21.70
2014,06,30,13,55,21.70
2014,06,30,13,56,21.70
2014,06,30,13,57,21.70
2014,06,30,13,58,21.70
2014,06,30,13,59,21.70
2014,06,30,14,00,21.70
2014,06,30,14,01,21.70
2014,06,30,14,02,21.80
2014,06,30,14,03,21.80
2014,06,30,14,04,21.80
2014,06,30,14,05,21.70
2014,06,30,14,06,21.70
2014,06,30,14,07,21.60
2014,06,30,14,08,21.50
2014,06,30,14,09,21.40
2014,06,30,14,10,21.40
2014,06,30,14,11,21.40
2014,06,30,14,12,21.40
2014,06,30,14,13,21.50
2014,06,30,14,14,21.60
2014,06,30,14,15,21.60
2014,06,30,14,16,21.60
2014,06,30,14,17,21.60
2014,06,30,14,18,21.70
2014,06,30,14,19,21.80
2014,06,30,14,20,21.90
2014,06,30,14,21,22.00
2014,06,30,14,22,22.10
2014,06,30,14,23,22.10
2014,06,30,14,24,22.10
2014,06,30,14,25,22.20
2014,06,30,14,26,22.20
2014,06,30,14,27,22.30
2014,06,30,14,28,22.30
2014,06,30,14,29,22.40
2014,06,30,14,30,22.40
2014,06,30,14,31,22.40
2014,06,30,14,32,22.30
2014,06,30,14,33,22.30
2014,06,30,14,34,22.20
2014,06,30,14,35,22.10
2014,06,30,14,36,22.10
2014,06,30,14,37,22.10
2014,06,30,14,38,22.20
2014,06,30,14,39,22.20
2014,06,30,14,40,22.30
2014,06,30,14,41,22.40
2014,06,30,14,42,22.50
2014,06,30,14,43,22.50
2014,06,30,14,44,22.60
2014,06,30,14,45,22.60
2014,06,30,14,46,22.70
2014,06,30,14,47,22.70
2014,06,30,14,48,22.70
2014,06,30,14,49,22.70
2014,06,30,14,50,22.60
2014,06,30,14,51,22.60
2014,06,30,14,52,22.50
2014,06,30,14,53,22.50
2014,06,30,14,54,22.50
2014,06,30,14,55,22.60
2014,06,30,14,56,22.60
2014,06,30,14,57,22.60
2014,06,30,14,58,22.60
2014,06,30,14,59,22.70
2014,06,30,15,00,22.80
2014,06,30,15,01,22.80
2014,06,30,15,02,22.90
2014,06,30,15,03,22.90
2014,06,30,15,04,22.90
2014,06,30,15,05,22.90
2014,06,30,15,06,22.90
2014,06,30,15,07,22.90
2014,06,30,15,08,22.90
2014,06,30,15,09,23.00
2014,06,30,15,10,23.10
2014,06,30,15,11,23.20
2014,06,30,15,12,23.30
2014,06,30,15,13,23.30
2014,06,30,15,14,23.30
2014,06,30,15,15,23.30
2014,06,30,15,16,23.30
2014,06,30,15,17,23.30
2014,06,30,15,18,23.30
2014,06,30,15,19,23.30
2014,06,30,15,20,23.20
2014,06,30,15,21,23.20
2014,06,30,15,22,23.10
2014,06,30,15,23,23.00
2014,06,30,15,24,22.90
2014,06,30,15,25,22.80
2014,06,30,15,26,22.70
2014,06,30,15,27,22.70
2014,06,30,15,28,22.70
2014,06,30,15,29,22.80
2014,06,30,15,30,22.80
2014,06,30,15,31,22.80
2014,06,30,15,32,22.90
2014,06,30,15,33,22.90
2014,06,30,15,34,23.00
2014,06,30,15,35,23.00
2014,06,30,15,36,23.00
2014,06,30,15,37,23.00
2014,06,30,15,38,22.90
2014,06,30,15,39,22.90
2014,06,30,15,40,22.80
2014,06,30,15,41,22.80
2014,06,30,15,42,22.90
2014,06,30,15,43,22.90
2014,06,30,15,44,22.90
2014,06,30,15,45,22.90
2014,06,30,15,46,23.00
2014,06,30,15,47,23.00
2014,06,30,15,48,23.10
2014,06,30,15,49,23.10
2014,06,30,15,50,23.20
2014,06,30,15,51,23.20
2014,06,30,15,52,23.30
2014,06,30,15,53,23.30
2014,06,30,15,54,23.30
2014,06,30,15,55,23.30
2014,06,30,15,56,23.30
2014,06,30,15,57,23.30
2014,06,30,15,58,23.30
2014,06,30,15,59,23.30
2014,06,30,16,00,23.40
2014,06,30,16,01,23.40
2014,06,30,16,02,23.50
2014,06,30,16,03,23.50
2014,06,30,16,04,23.50
2014,06,30,16,05,23.50
2014,06,30,16,06,23.50
2014,06,30,16,07,23.50
2014,06,30,16,08,23.60
2014,06,30,16,09,23.60
2014,06,30,16,10,23.60
2014,06,30,16,11,23.70
2014,06,30,16,12,23.70
2014,06,30,16,13,23.70
2014,06,30,16,14,23.70
2014,06,30,16,15,23.80
2014,06,30,16,16,23.80
2014,06,30,16,17,23.80
2014,06,30,16,18,23.80
2014,06,30,16,19,23.70
2014,06,30,16,20,23.60
2014,06,30,16,21,23.60
2014,06,30,16,22,23.60
2014,06,30,16,23,23.70
2014,06,30,16,24,23.70
2014,06,30,16,25,23.80
2014,06,30,16,26,23.90
2014,06,30,16,27,23.90
2014,06,30,16,28,23.90
2014,06,30,16,29,23.90
2014,06,30,16,30,23.90
2014,06,30,16,31,23.80
2014,06,30,16,32,23.80
2014,06,30,16,33,23.70
2014,06,30,16,34,23.70
2014,06,30,16,35,23.70
2014,06,30,16,36,23.70
2014,06,30,16,37,23.70
2014,06,30,16,38,23.70
2014,06,30,16,39,23.70
2014,06,30,16,40,23.70
2014,06,30,16,41,23.70
2014,06,30,16,42,23.70
2014,06,30,16,43,23.70
2014,06,30,16,44,23.70
2014,06,30,16,45,23.70
2014,06,30,16,46,23.70
2014,06,30,16,47,23.60
2014,06,30,16,48,23.60
2014,06,30,16,49,23.60
2014,06,30,16,50,23.60
2014,06,30,16,51,23.60
2014,06,30,16,52,23.60
2014,06,30,16,53,23.70
2014,06,30,16,54,23.70
2014,06,30,16,55,23.70
2014,06,30,16,56,23.60
2014,06,30,16,57,23.60
2014,06,30,16,58,23.60
2014,06,30,16,59,23.60
2014,06,30,17,00,23.60
2014,06,30,17,01,23.60
2014,06,30,17,02,23.50
2014,06,30,17,03,23.50
2014,06,30,17,04,23.50
2014,06,30,17,05,23.50
2014,06,30,17,06,23.50
2014,06,30,17,07,23.60
2014,06,30,17,08,23.60
2014,06,30,17,09,23.70
2014,06,30,17,10,23.70
2014,06,30,17,11,23.70
2014,06,30,17,12,23.70
2014,06,30,17,13,23.80
2014,06,30,17,14,23.80
2014,06,30,17,15,23.80
2014,06,30,17,16,23.90
2014,06,30,17,17,24.00
2014,06,30,17,18,24.10
2014,06,30,17,19,24.20